Location: Apollinopolis Magna
(24.9792°N, 32.8772°E)
Time: 11:06:01
(UTC+00:00)

Delta 2 Rocket - Pass Details

Date: 02 March 2021
Orbit: 890 x 1677 km, 26.4° (Epoch: 15 April)

Event Time Altitude Azimuth Distance (km) Brightness Sun altitude
Rises 17:51:51 0° 260° (W) 3,608 8.1 -28.1°
Reaches altitude 10° 17:54:32 10° 260° (W) 2,606 7.1 -28.7°
Enters shadow 18:00:14 78° 265° (W) 906 3.8 -30.0°
